This demonstration page uses our WeatherBlox Daily Observations layout. Learn more.

Left ArrowRight Arrow

34.16533, -84.80231

Hourly Observations for October 25, 2021

Temp ( °F °C ) Dew Point ( °F °C ) Humidity (%) Winds ( mph kmh ) Pressure ( in mb ) Visibility ( mi km ) Precip ( " mm )
12:15 am 00:15 Clear 61 16 57 14 88 88 ENE 5 7 30.04 1017 10 16 N/A
12:35 am 00:35 Clear 61 16 57 14 88 88 N N/A 30.04 1017 10 16 N/A
12:55 am 00:55 Clear 63 17 57 14 83 83 N N/A 30.03 1017 10 16 N/A
1:15 am 01:15 Clear 63 17 57 14 83 83 N N/A 30.03 1017 10 16 N/A
1:35 am 01:35 Mostly Clear 61 16 57 14 88 88 N N/A 30.02 1017 10 16 N/A
1:55 am 01:55 Partly Cloudy 61 16 57 14 88 88 N N/A 30.01 1016 10 16 N/A
2:15 am 02:15 Partly Cloudy 61 16 57 14 88 88 N N/A 30.00 1016 10 16 N/A
2:35 am 02:35 Partly Cloudy 59 15 57 14 94 94 N N/A 30.00 1016 10 16 N/A
2:55 am 02:55 Mostly Clear 59 15 55 13 88 88 N N/A 30.00 1016 10 16 N/A
3:15 am 03:15 Clear 59 15 55 13 88 88 N N/A 30.00 1016 10 16 N/A
3:35 am 03:35 Clear 59 15 55 13 88 88 N N/A 30.00 1016 10 16 N/A
3:55 am 03:55 Clear 57 14 55 13 94 94 N N/A 29.99 1016 10 16 N/A
4:15 am 04:15 Clear 55 13 55 13 100 100 N N/A 30.00 1016 8 13 N/A
4:35 am 04:35 Clear 55 13 55 13 100 100 N N/A 30.00 1016 9 14 N/A
4:55 am 04:55 Clear 55 13 54 12 94 94 N N/A 29.99 1016 9 14 N/A
5:15 am 05:15 Clear 55 13 55 13 100 100 N N/A 29.99 1016 9 14 N/A
5:35 am 05:35 Clear 55 13 54 12 94 94 N N/A 29.98 1015 8 13 N/A
5:55 am 05:55 Clear 55 13 54 12 94 94 N N/A 29.98 1015 9 14 N/A
6:15 am 06:15 Partly Cloudy 55 13 55 13 100 100 N N/A 29.98 1015 8 13 N/A
6:35 am 06:35 Partly Cloudy 55 13 54 12 94 94 N N/A 29.98 1015 7 11 N/A
6:55 am 06:55 Mostly Clear 55 13 54 12 94 94 N N/A 29.98 1015 8 13 N/A
7:15 am 07:15 Mostly Clear 55 13 54 12 94 94 N N/A 29.98 1015 8 13 N/A
7:35 am 07:35 Clear 55 13 54 12 94 94 N N/A 29.98 1015 8 13 N/A
7:55 am 07:55 Sunny 55 13 54 12 94 94 N N/A 29.98 1015 8 13 N/A
8:15 am 08:15 Sunny with Mist and Fog 55 13 55 13 100 100 N N/A 29.98 1015 6 10 N/A
8:35 am 08:35 Sunny 57 14 55 13 94 94 N N/A 29.98 1015 7 11 N/A
8:55 am 08:55 Partly Cloudy 57 14 57 14 100 100 N N/A 29.99 1016 8 13 N/A
9:15 am 09:15 Mostly Cloudy 59 15 57 14 94 94 N N/A 30.00 1016 8 13 N/A
9:35 am 09:35 Mostly Cloudy 61 16 57 14 88 88 N N/A 29.99 1016 8 13 N/A
9:55 am 09:55 Mostly Cloudy 63 17 57 14 83 83 N N/A 29.98 1015 9 14 N/A
10:15 am 10:15 Partly Cloudy 64 18 59 15 83 83 ESE 5 7 29.95 1014 9 14 N/A
10:35 am 10:35 Sunny 64 18 59 15 83 83 VRB 3 6 29.93 1013 9 14 N/A
10:55 am 10:55 Partly Cloudy 64 18 59 15 83 83 N N/A 29.94 1014 9 14 N/A
11:15 am 11:15 Mostly Cloudy 66 19 61 16 83 83 N N/A 29.93 1013 9 14 N/A
11:35 am 11:35 Mostly Cloudy 68 20 59 15 73 73 SSE 6 9 29.91 1013 9 14 N/A
11:55 am 11:55 Mostly Cloudy 70 21 61 16 73 73 VRB 3 6 29.90 1013 10 16 N/A
12:15 pm 12:15 Cloudy 72 22 61 16 69 69 N N/A 29.89 1012 10 16 N/A
12:35 pm 12:35 Mostly Cloudy 73 23 63 17 69 69 VRB 5 7 29.87 1012 10 16 N/A
12:55 pm 12:55 Mostly Cloudy 75 24 64 18 69 69 N N/A 29.85 1011 10 16 N/A
1:15 pm 13:15 Cloudy 75 24 64 18 69 69 N N/A 29.84 1011 9 14 N/A
1:35 pm 13:35 Cloudy 75 24 64 18 69 69 N N/A 29.83 1010 10 16 N/A
1:55 pm 13:55 Mostly Cloudy 75 24 64 18 69 69 N N/A 29.82 1010 10 16 N/A
2:15 pm 14:15 Cloudy 77 25 66 19 69 69 VRB 3 6 29.80 1009 10 16 N/A
2:35 pm 14:35 Cloudy 77 25 64 18 65 65 WSW 9 15 29.79 1009 10 16 N/A
2:55 pm 14:55 Cloudy 77 25 64 18 65 65 WSW 9 15 29.79 1009 10 16 N/A
3:15 pm 15:15 Mostly Cloudy 75 24 64 18 69 69 WSW 7 11 29.78 1009 10 16 N/A
3:35 pm 15:35 Cloudy 77 25 64 18 65 65 W 10 17 29.78 1008 10 16 N/A
3:55 pm 15:55 Cloudy 75 24 64 18 69 69 W 9 15 29.78 1009 9 14 N/A
4:15 pm 16:15 Cloudy 73 23 66 19 78 78 WNW 9 15 29.78 1009 10 16 N/A
4:35 pm 16:35 Cloudy 73 23 66 19 78 78 W 13 20 29.79 1009 10 16 N/A
4:55 pm 16:55 Mostly Cloudy 75 24 64 18 69 69 W 12 19 29.79 1009 10 16 N/A
5:15 pm 17:15 Partly Cloudy 73 23 64 18 74 74 W 14 22 29.79 1009 10 16 N/A
5:35 pm 17:35 Mostly Sunny 75 24 64 18 69 69 W 10 17 29.79 1009 10 16 N/A
5:55 pm 17:55 Mostly Sunny 75 24 63 17 65 65 W 10 17 29.79 1009 10 16 N/A
6:15 pm 18:15 Sunny 73 23 63 17 69 69 W 9 15 29.79 1009 10 16 N/A
6:35 pm 18:35 Sunny 72 22 61 16 69 69 W 7 11 29.81 1009 10 16 N/A
6:55 pm 18:55 Clear 72 22 61 16 69 69 W 8 13 29.81 1009 10 16 N/A
7:15 pm 19:15 Clear 70 21 61 16 73 73 W 6 9 29.81 1009 10 16 N/A
7:35 pm 19:35 Clear 70 21 61 16 73 73 W 5 7 29.82 1010 10 16 N/A
7:55 pm 19:55 Clear 68 20 61 16 78 78 N N/A 29.83 1010 10 16 N/A
8:15 pm 20:15 Clear 66 19 61 16 83 83 W 3 6 29.84 1010 10 16 N/A
8:35 pm 20:35 Clear 66 19 61 16 83 83 W 5 7 29.84 1010 10 16 N/A
8:55 pm 20:55 Clear 66 19 61 16 83 83 VRB 3 6 29.84 1010 10 16 N/A
9:15 pm 21:15 Clear 66 19 61 16 83 83 W 7 11 29.84 1010 10 16 N/A
9:35 pm 21:35 Clear 66 19 61 16 83 83 W 7 11 29.85 1011 10 16 N/A
9:55 pm 21:55 Clear 64 18 61 16 88 88 W 10 17 29.85 1011 10 16 N/A
10:15 pm 22:15 Clear 64 18 59 15 83 83 WNW 12 19 29.87 1011 10 16 N/A
10:35 pm 22:35 Mostly Clear 64 18 57 14 78 78 W 10 17 29.88 1012 10 16 N/A
10:55 pm 22:55 Mostly Clear 63 17 55 13 77 77 W 12 19 29.89 1012 10 16 N/A
11:15 pm 23:15 Mostly Clear 61 16 54 12 77 77 W 9 15 29.89 1012 10 16 N/A
11:35 pm 23:35 Mostly Cloudy 61 16 54 12 77 77 W 9 15 29.90 1013 10 16 N/A
11:55 pm 23:55 Cloudy 61 16 54 12 77 77 VRB 6 9 29.91 1013 10 16 N/A

Powered by AerisWeather